Location: Hlohovi?ky
(49.8934°N, 13.6739°E)
Time: 16:23:36
(UTC+00:00)

Cosmos 1980 Rocket - Pass Details

Date: 19 May 2025
Orbit: 829 x 847 km, 71.0° (Epoch: 17 June)

Event Time Altitude Azimuth Distance (km) Brightness Sun altitude
Rises 20:45:41 0° 331° (NNW) 3,383 7.3 -13.9°
Reaches altitude 10° 20:48:08 10° 332° (NNW) 2,446 6.1 -14.1°
Maximum altitude 20:53:45 86° 61° (ENE) 840 2.2 -14.6°
Enters shadow 20:57:25 23° 150° (SSE) 1,716 3.2 -14.9°
